Regional Weather Roundup
Issued by NWS Sterling, VA

Home | Current Version | Previous Version | Graphics & Text | Print | Product List | Glossary On
Versions: 1 2 3 4 5 6 7 8 9 10 11 12 13 14 15 16 17 18 19 20 21 22 23 24 25 26 27 28 29 30 31 32 33 34 35 36 37 38 39 40 41 42 43 44 45 46 47 48 49 50
000
ASUS41 KLWX 202110
RWRLWX

REGIONAL WEATHER ROUNDUP
NATIONAL WEATHER SERVICE BALTIMORE MD/WASHINGTON DC
500 PM EDT WED AUG 20 2014

Note: "FAIR" indicates few or no clouds below 12,000 feet
with no significant weather and/or obstructions to visibility.
 TC=TEMPERATURE CELSIUS

 * =Non NWS site. Station does not report precipitation (e.g. rain,
    snow, etc.), thunder, or fog.

DCZ001-MDZ009-015-VAZ040>042-051-053>054-202200-
WASHINGTON METRO
  /KDAA//-FT BELVOIR

CITY           SKY/WX    TMP DP  RH WIND       PRES   REMARKS
WASHINGTON NAT PTSUNNY   84  60  44 S7        29.96R
DULLES         TSTM      70  69  97 N7        29.98R VSB 1
ANDREWS AFB    MOSUNNY   81  63  53 SE9       29.97R
QUANTICO       PTSUNNY   82  65  56 SE14      29.95R
COLLEGE PARK*  PTSUNNY   82  64  54 E5        29.96R
LEESBURG*      CLOUDY    72  72 100 SW3       29.98S
GAITHERSBURG*  CLOUDY    72  66  83 CALM      30.02R

$$

MDZ006>007-011-014-202200-
BALTIMORE METRO

CITY           SKY/WX    TMP DP  RH WIND       PRES   REMARKS
BWI AIRPORT    PTSUNNY   81  61  50 SE5       29.96R
MD SCIENCE CTR   N/A     82  62  50 MISG      29.97R
MARTIN STATE   PTSUNNY   82  68  61 SE9       29.98S
ANNAPOLIS      CLOUDY    82  64  54 SE9       29.96S
FORT MEADE*    MOSUNNY   79  61  53 SE6       29.99R

$$

MDZ012-015-019>023-202200-
MARYLAND EASTERN SHORE

CITY           SKY/WX    TMP DP  RH WIND       PRES   REMARKS
OCEAN CITY     SUNNY     77  64  64 E7        30.00R
SALISBURY      SUNNY     83  62  49 SE7       29.98R
BAY BRIDGE AP*   N/A     81  63  54 SW5       29.97R
CAMBRIDGE*     PTSUNNY   86  61  42 S6        29.96S
EASTON*        PTSUNNY   86  64  48 S8        30.00S

$$

MDZ017>025-202200-
SOUTHERN MARYLAND

CITY           SKY/WX    TMP DP  RH WIND       PRES   REMARKS
PATUXENT RIVER NOT AVBL
ST INIGOES     SUNNY     81  61  50 S9        29.97R
LEONARDTOWN*   SUNNY     81  61  50 SE6       29.99R

$$

MDZ003>005-202200-
NORTH CENTRAL MARYLAND

CITY           SKY/WX    TMP DP  RH WIND       PRES   REMARKS
FREDERICK*     PTSUNNY   73  73 100 CALM      29.99S
HAGERSTOWN APT LGT RAIN  75  70  84 SE6       29.96R
WESTMINSTER*   CLOUDY    75  72  88 SE3       29.99S

$$

MDZ501>502-202200-
WESTERN MARYLAND

CITY           SKY/WX    TMP DP  RH WIND       PRES   REMARKS
OAKLAND*       PTSUNNY   73  63  68 W5        30.07R
CUMBERLAND*    MOSUNNY   91  59  33 W7        29.97R HX  90

$$

VAZ025>031-202200-
SHENANDOAH VALLEY

CITY           SKY/WX    TMP DP  RH WIND       PRES   REMARKS
WINCHESTER*    PTSUNNY   79  70  73 E7        29.96R
STAUNTON*      MOSUNNY   87  64  44 SW8       29.97S

$$

WVZ021-048>050-054>055-202200-
EASTERN WEST VIRGINIA PANHANDLE

CITY           SKY/WX    TMP DP  RH WIND       PRES   REMARKS
MARTINSBURG    PTSUNNY   78  68  71 SE7       29.96R
PETERSBURG*    NOT AVBL

$$

VAZ036>039-050-202200-
CENTRAL FOOTHILLS

CITY           SKY/WX    TMP DP  RH WIND       PRES   REMARKS
CHARLOTTESVILL MOSUNNY   85  70  60 SW10      29.94S
ORANGE*        MOSUNNY   82  70  65 SE6       29.95S

$$

VAZ055>057-202200-
NORTH AND CENTRAL PIEDMONT

CITY           SKY/WX    TMP DP  RH WIND       PRES   REMARKS
FREDERICKSBRG* MOSUNNY   89  65  45 SE10      29.93S HX  90
STAFFORD*      CLOUDY    84  67  57 E7        29.98S

$$

NCZ024-NYZ072-PAZ021-071-VAZ022-071-202200-
OTHER REGIONAL OBSERVATIONS

CITY           SKY/WX    TMP DP  RH WIND       PRES   REMARKS
NEW YORK CITY  SUNNY     81  57  43 VRB3      30.02R
PHILADELPHIA   CLOUDY    84  63  49 S5        29.97R
PITTSBURGH     PTSUNNY   80  65  59 W8        29.95S
ROANOKE        MOSUNNY   85  65  51 S5        29.99S
RICHMOND       MOSUNNY   86  67  52 S7        29.95R
RALEIGH        MOSUNNY   89  71  55 SW5       29.97S HX  95

$$

ANZ530>537-202200-
MARINE OBSERVATIONS

STATION/POSITION TIME  TEMP    WIND        PRES
                       AIR SEA DIR/SP/G
                 (UTC) (F)     (DEG/KT/KT) (MB)
THOMAS PT LIGHT  2100   79 79  200/ 11/ 11 1015.3R
BALT KEY BRIDGE  2100   80     120/  5/  8 1014.6R
COVE POINT       2100   78     190/ 13/ 14 1014.7R
LEWISETTA        2100   81 81  140/ 10/ 12 1014.8R
SOLOMONS ISLAND  2100      81                N/A
PINEY POINT      2100          150/ 12/ 13   N/A

$$



USA.gov is the U.S. government's official web portal to all federal, state and local government web resources and services.